Time,TemperatureF,DewpointF,PressureIn,WindDirection,WindDirectionDegrees,WindSpeedMPH,WindSpeedGustMPH,Humidity,HourlyPrecipIn,Conditions,Clouds,dailyrainin,SoftwareType,DateUTC
2013-01-18 00:02:00,34.5,17.7,32.10,North,353,0.0,3.0,50,0.00,NA,NA,-99.99,wxupload 3.4,2013-01-18 05:02:00,
2013-01-18 00:04:00,34.5,17.7,32.10,NW,311,0.0,3.0,50,0.00,NA,NA,-99.99,wxupload 3.4,2013-01-18 05:04:00,
2013-01-18 00:10:00,34.5,17.3,32.10,North,4,0.0,0.0,49,0.00,NA,NA,-99.99,wxupload 3.4,2013-01-18 05:10:00,
2013-01-18 00:16:00,34.5,17.7,32.10,NW,319,0.0,3.0,50,0.00,NA,NA,-99.99,wxupload 3.4,2013-01-18 05:16:00,
2013-01-18 00:18:00,34.5,17.3,32.13,North,2,0.0,0.0,49,0.00,NA,NA,-99.99,wxupload 3.4,2013-01-18 05:18:00,
2013-01-18 00:24:00,34.5,16.8,32.13,North,0,0.0,3.0,48,0.00,NA,NA,-99.99,wxupload 3.4,2013-01-18 05:24:00,
2013-01-18 00:30:00,34.5,16.8,32.13,WNW,303,0.0,0.0,48,0.00,NA,NA,-99.99,wxupload 3.4,2013-01-18 05:30:00,
2013-01-18 00:36:00,34.7,16.5,32.13,NW,314,2.0,4.0,47,0.00,NA,NA,-99.99,wxupload 3.4,2013-01-18 05:36:00,
2013-01-18 00:42:00,34.7,16.5,32.13,NW,311,0.0,3.0,47,0.00,NA,NA,-99.99,wxupload 3.4,2013-01-18 05:42:00,
2013-01-18 00:48:00,34.9,15.1,32.13,West,271,4.0,6.0,44,0.00,NA,NA,-99.99,wxupload 3.4,2013-01-18 05:48:00,
2013-01-18 00:54:00,34.9,15.1,32.13,North,11,0.0,0.0,44,0.00,NA,NA,-99.99,wxupload 3.4,2013-01-18 05:54:00,
2013-01-18 01:00:00,34.5,14.8,32.13,NW,313,0.0,0.0,44,0.00,NA,NA,-99.99,wxupload 3.4,2013-01-18 06:00:00,
2013-01-18 01:06:00,34.0,14.3,32.13,NW,304,2.0,4.0,44,0.00,NA,NA,-99.99,wxupload 3.4,2013-01-18 06:06:00,
2013-01-18 01:12:00,34.2,14.4,32.13,North,357,0.0,0.0,44,0.00,NA,NA,-99.99,wxupload 3.4,2013-01-18 06:12:00,
2013-01-18 01:18:00,34.2,13.9,32.16,NW,322,0.0,5.0,43,0.00,NA,NA,-99.99,wxupload 3.4,2013-01-18 06:18:00,
2013-01-18 01:24:00,34.0,13.8,32.16,WNW,302,3.0,4.0,43,0.00,NA,NA,-99.99,wxupload 3.4,2013-01-18 06:24:00,
2013-01-18 01:30:00,34.0,13.8,32.16,WNW,297,0.0,3.0,43,0.00,NA,NA,-99.99,wxupload 3.4,2013-01-18 06:30:00,
2013-01-18 01:36:00,33.8,13.6,32.16,NE,41,2.0,6.0,43,0.00,NA,NA,-99.99,wxupload 3.4,2013-01-18 06:36:00,
2013-01-18 01:42:00,34.0,13.8,32.16,NW,310,0.0,0.0,43,0.00,NA,NA,-99.99,wxupload 3.4,2013-01-18 06:42:00,
2013-01-18 01:48:00,34.2,13.9,32.19,ENE,74,0.0,0.0,43,0.00,NA,NA,-99.99,wxupload 3.4,2013-01-18 06:48:00,
2013-01-18 01:54:00,34.3,13.5,32.19,NW,318,3.0,8.0,42,0.00,NA,NA,-99.99,wxupload 3.4,2013-01-18 06:54:00,
2013-01-18 02:00:00,34.9,13.5,32.19,East,98,2.0,9.0,41,0.00,NA,NA,-99.99,wxupload 3.4,2013-01-18 07:00:00,
2013-01-18 02:06:00,34.9,12.9,32.19,NNE,19,3.0,8.0,40,0.00,NA,NA,-99.99,wxupload 3.4,2013-01-18 07:06:00,
2013-01-18 02:12:00,34.7,13.3,32.19,NNW,343,3.0,4.0,41,0.00,NA,NA,-99.99,wxupload 3.4,2013-01-18 07:12:00,
2013-01-18 02:18:00,34.2,12.8,32.19,NNE,24,0.0,0.0,41,0.00,NA,NA,-99.99,wxupload 3.4,2013-01-18 07:18:00,
2013-01-18 02:24:00,34.0,12.7,32.19,NNW,338,0.0,0.0,41,0.00,NA,NA,-99.99,wxupload 3.4,2013-01-18 07:24:00,
2013-01-18 02:30:00,34.2,12.8,32.19,NE,38,0.0,0.0,41,0.00,NA,NA,-99.99,wxupload 3.4,2013-01-18 07:30:00,
2013-01-18 02:36:00,34.3,13.0,32.19,WNW,296,0.0,0.0,41,0.00,NA,NA,-99.99,wxupload 3.4,2013-01-18 07:36:00,
2013-01-18 02:42:00,34.5,13.2,32.19,West,280,0.0,0.0,41,0.00,NA,NA,-99.99,wxupload 3.4,2013-01-18 07:42:00,
2013-01-18 02:48:00,34.5,13.2,32.19,West,280,0.0,0.0,41,0.00,NA,NA,-99.99,wxupload 3.4,2013-01-18 07:48:00,
2013-01-18 02:54:00,34.3,13.0,32.19,NE,51,0.0,2.0,41,0.00,NA,NA,-99.99,wxupload 3.4,2013-01-18 07:54:00,
2013-01-18 03:00:00,34.5,12.6,32.19,NNW,341,2.0,5.0,40,0.00,NA,NA,-99.99,wxupload 3.4,2013-01-18 08:00:00,
2013-01-18 03:06:00,34.5,12.6,32.19,West,275,0.0,4.0,40,0.00,NA,NA,-99.99,wxupload 3.4,2013-01-18 08:06:00,
2013-01-18 03:12:00,34.7,12.8,32.19,NE,47,3.0,9.0,40,0.00,NA,NA,-99.99,wxupload 3.4,2013-01-18 08:12:00,
2013-01-18 03:18:00,35.1,11.9,32.19,NNW,328,4.0,5.0,38,0.00,NA,NA,-99.99,wxupload 3.4,2013-01-18 08:18:00,
2013-01-18 03:24:00,35.4,11.0,32.19,NW,308,2.0,4.0,36,0.00,NA,NA,-99.99,wxupload 3.4,2013-01-18 08:24:00,
2013-01-18 03:30:00,35.2,11.5,32.19,NNW,344,2.0,5.0,37,0.00,NA,NA,-99.99,wxupload 3.4,2013-01-18 08:30:00,
2013-01-18 03:36:00,35.2,10.8,32.19,NW,320,0.0,0.0,36,0.00,NA,NA,-99.99,wxupload 3.4,2013-01-18 08:36:00,
2013-01-18 03:42:00,35.1,10.7,32.19,North,7,3.0,7.0,36,0.00,NA,NA,-99.99,wxupload 3.4,2013-01-18 08:42:00,
2013-01-18 03:48:00,35.2,10.8,32.19,NNW,338,3.0,5.0,36,0.00,NA,NA,-99.99,wxupload 3.4,2013-01-18 08:48:00,
2013-01-18 03:54:00,35.1,11.3,32.19,North,353,0.0,0.0,37,0.00,NA,NA,-99.99,wxupload 3.4,2013-01-18 08:54:00,
2013-01-18 04:00:00,35.1,10.7,32.19,NNE,28,0.0,4.0,36,0.00,NA,NA,-99.99,wxupload 3.4,2013-01-18 09:00:00,
2013-01-18 04:06:00,35.2,10.2,32.22,NW,318,3.0,5.0,35,0.00,NA,NA,-99.99,wxupload 3.4,2013-01-18 09:06:00,
2013-01-18 04:12:00,35.1,10.0,32.22,NNW,333,4.0,6.0,35,0.00,NA,NA,-99.99,wxupload 3.4,2013-01-18 09:12:00,
2013-01-18 04:18:00,35.1,8.7,32.22,NW,315,4.0,8.0,33,0.00,NA,NA,-99.99,wxupload 3.4,2013-01-18 09:18:00,
2013-01-18 04:24:00,35.1,8.0,32.22,NNE,17,5.0,6.0,32,0.00,NA,NA,-99.99,wxupload 3.4,2013-01-18 09:24:00,
2013-01-18 04:30:00,34.9,8.5,32.22,NNW,343,0.0,3.0,33,0.00,NA,NA,-99.99,wxupload 3.4,2013-01-18 09:30:00,
2013-01-18 04:36:00,34.7,7.7,32.22,North,7,3.0,6.0,32,0.00,NA,NA,-99.99,wxupload 3.4,2013-01-18 09:36:00,
2013-01-18 04:42:00,34.5,6.8,32.22,ENE,64,8.0,14.0,31,0.00,NA,NA,-99.99,wxupload 3.4,2013-01-18 09:42:00,
2013-01-18 04:48:00,34.0,6.3,32.22,North,0,6.0,6.0,31,0.00,NA,NA,-99.99,wxupload 3.4,2013-01-18 09:48:00,
2013-01-18 04:54:00,33.6,6.0,32.22,NNW,344,6.0,11.0,31,0.00,NA,NA,-99.99,wxupload 3.4,2013-01-18 09:54:00,
2013-01-18 05:00:00,33.3,5.7,32.22,NNW,341,6.0,10.0,31,0.00,NA,NA,-99.99,wxupload 3.4,2013-01-18 10:00:00,
2013-01-18 05:06:00,33.1,6.3,32.25,NNW,331,0.0,8.0,32,0.00,NA,NA,-99.99,wxupload 3.4,2013-01-18 10:06:00,
2013-01-18 05:12:00,32.7,5.2,32.25,North,0,5.0,6.0,31,0.00,NA,NA,-99.99,wxupload 3.4,2013-01-18 10:12:00,
2013-01-18 05:18:00,32.5,5.8,32.25,NW,313,5.0,8.0,32,0.00,NA,NA,-99.99,wxupload 3.4,2013-01-18 10:18:00,
2013-01-18 05:24:00,32.2,5.4,32.25,WNW,299,3.0,6.0,32,0.00,NA,NA,-99.99,wxupload 3.4,2013-01-18 10:24:00,
2013-01-18 05:30:00,32.0,4.6,32.25,NNE,17,4.0,10.0,31,0.00,NA,NA,-99.99,wxupload 3.4,2013-01-18 10:30:00,
2013-01-18 05:36:00,31.6,4.3,32.25,NE,43,6.0,8.0,31,0.00,NA,NA,-99.99,wxupload 3.4,2013-01-18 10:36:00,
2013-01-18 05:42:00,31.3,3.9,32.25,NNW,329,4.0,7.0,31,0.00,NA,NA,-99.99,wxupload 3.4,2013-01-18 10:42:00,
2013-01-18 05:48:00,30.9,3.6,32.28,NNW,337,4.0,8.0,31,0.00,NA,NA,-99.99,wxupload 3.4,2013-01-18 10:48:00,
2013-01-18 05:54:00,30.7,3.5,32.28,NNW,342,7.0,8.0,31,0.00,NA,NA,-99.99,wxupload 3.4,2013-01-18 10:54:00,
2013-01-18 06:00:00,30.4,3.1,32.28,NNW,343,4.0,8.0,31,0.00,NA,NA,-99.99,wxupload 3.4,2013-01-18 11:00:00,
2013-01-18 06:06:00,30.2,3.0,32.28,North,11,5.0,9.0,31,0.00,NA,NA,-99.99,wxupload 3.4,2013-01-18 11:06:00,
2013-01-18 06:12:00,29.8,2.7,32.28,NNE,24,3.0,8.0,31,0.00,NA,NA,-99.99,wxupload 3.4,2013-01-18 11:12:00,
2013-01-18 06:18:00,29.7,2.5,32.31,WNW,299,4.0,8.0,31,0.00,NA,NA,-99.99,wxupload 3.4,2013-01-18 11:18:00,
2013-01-18 06:24:00,29.5,3.0,32.31,NNE,18,5.0,5.0,32,0.00,NA,NA,-99.99,wxupload 3.4,2013-01-18 11:24:00,
2013-01-18 06:30:00,29.1,2.7,32.31,WNW,300,4.0,5.0,32,0.00,NA,NA,-99.99,wxupload 3.4,2013-01-18 11:30:00,
2013-01-18 06:36:00,29.3,2.2,32.31,NNE,33,4.0,5.0,31,0.00,NA,NA,-99.99,wxupload 3.4,2013-01-18 11:36:00,
2013-01-18 06:42:00,28.9,2.5,32.31,NNW,330,3.0,5.0,32,0.00,NA,NA,-99.99,wxupload 3.4,2013-01-18 11:42:00,
2013-01-18 06:48:00,28.8,2.4,32.34,WNW,302,3.0,4.0,32,0.00,NA,NA,-99.99,wxupload 3.4,2013-01-18 11:48:00,
2013-01-18 06:54:00,28.6,1.5,32.34,NNE,12,0.0,3.0,31,0.00,NA,NA,-99.99,wxupload 3.4,2013-01-18 11:54:00,
2013-01-18 07:00:00,28.4,2.1,32.34,NNW,327,0.0,3.0,32,0.00,NA,NA,-99.99,wxupload 3.4,2013-01-18 12:00:00,
2013-01-18 07:06:00,28.2,1.2,32.34,NE,48,2.0,9.0,31,0.00,NA,NA,-99.99,wxupload 3.4,2013-01-18 12:06:00,
2013-01-18 07:12:00,28.2,1.9,32.34,NNW,344,4.0,5.0,32,0.00,NA,NA,-99.99,wxupload 3.4,2013-01-18 12:12:00,
2013-01-18 07:18:00,27.7,1.4,32.37,NNE,30,3.0,4.0,32,0.00,NA,NA,-99.99,wxupload 3.4,2013-01-18 12:18:00,
2013-01-18 07:24:00,27.7,1.4,32.37,NNW,331,4.0,5.0,32,0.00,NA,NA,-99.99,wxupload 3.4,2013-01-18 12:24:00,
2013-01-18 07:30:00,27.7,1.4,32.37,North,5,6.0,8.0,32,0.00,NA,NA,-99.99,wxupload 3.4,2013-01-18 12:30:00,
2013-01-18 07:36:00,27.7,1.4,32.37,NE,50,3.0,10.0,32,0.00,NA,NA,-99.99,wxupload 3.4,2013-01-18 12:36:00,
2013-01-18 07:42:00,27.9,1.6,32.37,NE,55,3.0,4.0,32,0.00,NA,NA,-99.99,wxupload 3.4,2013-01-18 12:42:00,
2013-01-18 07:48:00,27.7,0.7,32.37,NNW,339,3.0,6.0,31,0.00,NA,NA,-99.99,wxupload 3.4,2013-01-18 12:48:00,
2013-01-18 07:54:00,27.7,0.7,32.37,NW,323,4.0,6.0,31,0.00,NA,NA,-99.99,wxupload 3.4,2013-01-18 12:54:00,
2013-01-18 08:00:00,27.5,0.6,32.37,North,357,4.0,5.0,31,0.00,NA,NA,-99.99,wxupload 3.4,2013-01-18 13:00:00,
2013-01-18 08:06:00,27.7,1.4,32.37,NW,324,4.0,4.0,32,0.00,NA,NA,-99.99,wxupload 3.4,2013-01-18 13:06:00,
2013-01-18 08:12:00,27.5,1.3,32.37,NNE,20,0.0,4.0,32,0.00,NA,NA,-99.99,wxupload 3.4,2013-01-18 13:12:00,
2013-01-18 08:18:00,27.5,1.3,32.40,NNW,344,4.0,6.0,32,0.00,NA,NA,-99.99,wxupload 3.4,2013-01-18 13:18:00,
2013-01-18 08:24:00,27.7,0.7,32.40,NW,315,3.0,4.0,31,0.00,NA,NA,-99.99,wxupload 3.4,2013-01-18 13:24:00,
2013-01-18 08:30:00,27.9,0.9,32.40,North,353,3.0,3.0,31,0.00,NA,NA,-99.99,wxupload 3.4,2013-01-18 13:30:00,
2013-01-18 08:36:00,27.9,0.9,32.40,NW,322,0.0,3.0,31,0.00,NA,NA,-99.99,wxupload 3.4,2013-01-18 13:36:00,
2013-01-18 08:42:00,27.9,0.9,32.40,NE,54,4.0,6.0,31,0.00,NA,NA,-99.99,wxupload 3.4,2013-01-18 13:42:00,
2013-01-18 08:48:00,28.2,1.2,32.43,NNW,348,0.0,4.0,31,0.00,NA,NA,-99.99,wxupload 3.4,2013-01-18 13:48:00,
2013-01-18 08:54:00,28.2,1.2,32.43,NNW,331,5.0,6.0,31,0.00,NA,NA,-99.99,wxupload 3.4,2013-01-18 13:54:00,
2013-01-18 09:00:00,28.4,1.4,32.43,North,0,3.0,5.0,31,0.00,NA,NA,-99.99,wxupload 3.4,2013-01-18 14:00:00,
2013-01-18 09:06:00,28.6,1.5,32.43,WNW,299,4.0,5.0,31,0.00,NA,NA,-99.99,wxupload 3.4,2013-01-18 14:06:00,
2013-01-18 09:13:00,28.9,1.9,32.43,NNW,338,0.0,0.0,31,0.00,NA,NA,-99.99,wxupload 3.4,2013-01-18 14:13:00,
2013-01-18 09:18:00,28.9,1.9,32.43,NNW,330,0.0,4.0,31,0.00,NA,NA,-99.99,wxupload 3.4,2013-01-18 14:18:00,
2013-01-18 09:24:00,28.9,1.9,32.43,NNE,16,4.0,5.0,31,0.00,NA,NA,-99.99,wxupload 3.4,2013-01-18 14:24:00,
2013-01-18 09:30:00,29.3,2.2,32.43,North,350,4.0,9.0,31,0.00,NA,NA,-99.99,wxupload 3.4,2013-01-18 14:30:00,
2013-01-18 09:36:00,29.5,2.3,32.46,NNE,15,0.0,2.0,31,0.00,NA,NA,-99.99,wxupload 3.4,2013-01-18 14:36:00,
2013-01-18 09:43:00,29.7,2.5,32.46,NNE,22,4.0,6.0,31,0.00,NA,NA,-99.99,wxupload 3.4,2013-01-18 14:43:00,
2013-01-18 09:48:00,29.8,2.7,32.46,NNE,26,2.0,4.0,31,0.00,NA,NA,-99.99,wxupload 3.4,2013-01-18 14:48:00,
2013-01-18 09:54:00,30.0,2.8,32.46,North,349,4.0,6.0,31,0.00,NA,NA,-99.99,wxupload 3.4,2013-01-18 14:54:00,
2013-01-18 10:00:00,30.2,3.0,32.46,NE,43,4.0,5.0,31,0.00,NA,NA,-99.99,wxupload 3.4,2013-01-18 15:00:00,
2013-01-18 10:06:00,30.4,3.1,32.46,NE,51,0.0,4.0,31,0.00,NA,NA,-99.99,wxupload 3.4,2013-01-18 15:06:00,
2013-01-18 10:12:00,30.4,3.1,32.46,ENE,57,0.0,0.0,31,0.00,NA,NA,-99.99,wxupload 3.4,2013-01-18 15:12:00,
2013-01-18 10:18:00,30.7,3.5,32.49,NE,47,0.0,0.0,31,0.00,NA,NA,-99.99,wxupload 3.4,2013-01-18 15:18:00,
2013-01-18 10:25:00,31.1,3.8,32.49,NW,326,0.0,3.0,31,0.00,NA,NA,-99.99,wxupload 3.4,2013-01-18 15:25:00,
2013-01-18 10:30:00,31.3,3.9,32.49,East,83,0.0,2.0,31,0.00,NA,NA,-99.99,wxupload 3.4,2013-01-18 15:30:00,
2013-01-18 10:36:00,31.6,3.5,32.49,NNE,33,4.0,5.0,30,0.00,NA,NA,-99.99,wxupload 3.4,2013-01-18 15:36:00,
2013-01-18 10:42:00,31.5,3.4,32.49,North,3,3.0,6.0,30,0.00,NA,NA,-99.99,wxupload 3.4,2013-01-18 15:42:00,
2013-01-18 10:48:00,31.6,3.5,32.49,NNW,327,0.0,4.0,30,0.00,NA,NA,-99.99,wxupload 3.4,2013-01-18 15:48:00,
2013-01-18 10:54:00,32.0,3.9,32.49,NE,39,0.0,3.0,30,0.00,NA,NA,-99.99,wxupload 3.4,2013-01-18 15:54:00,
2013-01-18 11:00:00,32.0,3.9,32.49,NNE,29,4.0,4.0,30,0.00,NA,NA,-99.99,wxupload 3.4,2013-01-18 16:00:00,
2013-01-18 11:06:00,32.4,4.2,32.49,NW,314,3.0,4.0,30,0.00,NA,NA,-99.99,wxupload 3.4,2013-01-18 16:06:00,
2013-01-18 11:12:00,32.5,4.3,32.49,NW,324,0.0,3.0,30,0.00,NA,NA,-99.99,wxupload 3.4,2013-01-18 16:12:00,
2013-01-18 11:19:00,32.5,4.3,32.49,NW,324,2.0,0.0,30,0.00,NA,NA,-99.99,wxupload 3.4,2013-01-18 16:19:00,
2013-01-18 11:24:00,32.7,4.5,32.49,NNE,29,4.0,5.0,30,0.00,NA,NA,-99.99,wxupload 3.4,2013-01-18 16:24:00,
2013-01-18 11:30:00,32.7,4.5,32.49,NW,312,0.0,2.0,30,0.00,NA,NA,-99.99,wxupload 3.4,2013-01-18 16:30:00,
2013-01-18 11:36:00,33.1,4.8,32.49,NW,325,3.0,5.0,30,0.00,NA,NA,-99.99,wxupload 3.4,2013-01-18 16:36:00,
2013-01-18 11:42:00,33.1,4.8,32.49,NNW,342,0.0,3.0,30,0.00,NA,NA,-99.99,wxupload 3.4,2013-01-18 16:42:00,
2013-01-18 11:48:00,33.1,3.3,32.46,NNW,344,3.0,4.0,28,0.00,NA,NA,-99.99,wxupload 3.4,2013-01-18 16:48:00,
2013-01-18 11:54:00,33.3,5.0,32.46,NW,323,3.0,6.0,30,0.00,NA,NA,-99.99,wxupload 3.4,2013-01-18 16:54:00,
2013-01-18 12:01:00,33.3,3.5,32.46,WNW,288,0.0,3.0,28,0.00,NA,NA,-99.99,wxupload 3.4,2013-01-18 17:01:00,
2013-01-18 12:06:00,33.4,5.1,32.46,West,267,0.0,3.0,30,0.00,NA,NA,-99.99,wxupload 3.4,2013-01-18 17:06:00,
2013-01-18 12:12:00,33.6,3.8,32.46,NNE,20,0.0,0.0,28,0.00,NA,NA,-99.99,wxupload 3.4,2013-01-18 17:12:00,
2013-01-18 12:18:00,33.8,3.1,32.46,NW,305,0.0,4.0,27,0.00,NA,NA,-99.99,wxupload 3.4,2013-01-18 17:18:00,
2013-01-18 12:24:00,34.0,3.3,32.46,NNW,348,4.0,4.0,27,0.00,NA,NA,-99.99,wxupload 3.4,2013-01-18 17:24:00,
2013-01-18 12:30:00,34.0,3.3,32.46,West,278,3.0,4.0,27,0.00,NA,NA,-99.99,wxupload 3.4,2013-01-18 17:30:00,
2013-01-18 12:36:00,34.2,3.4,32.46,NW,312,3.0,4.0,27,0.00,NA,NA,-99.99,wxupload 3.4,2013-01-18 17:36:00,
2013-01-18 12:42:00,34.3,3.6,32.46,NNW,328,0.0,3.0,27,0.00,NA,NA,-99.99,wxupload 3.4,2013-01-18 17:42:00,
2013-01-18 12:48:00,34.5,3.8,32.46,SW,236,3.0,4.0,27,0.00,NA,NA,-99.99,wxupload 3.4,2013-01-18 17:48:00,
2013-01-18 12:54:00,34.7,3.9,32.46,NNW,337,0.0,0.0,27,0.00,NA,NA,-99.99,wxupload 3.4,2013-01-18 17:54:00,
2013-01-18 13:00:00,35.1,4.2,32.46,NW,305,3.0,5.0,27,0.00,NA,NA,-99.99,wxupload 3.4,2013-01-18 18:00:00,
2013-01-18 13:06:00,35.2,4.4,32.46,NW,325,0.0,5.0,27,0.00,NA,NA,-99.99,wxupload 3.4,2013-01-18 18:06:00,
2013-01-18 13:12:00,35.2,4.4,32.46,NW,316,3.0,4.0,27,0.00,NA,NA,-99.99,wxupload 3.4,2013-01-18 18:12:00,
2013-01-18 13:18:00,35.1,2.5,32.46,WSW,254,0.0,5.0,25,0.00,NA,NA,-99.99,wxupload 3.4,2013-01-18 18:18:00,
2013-01-18 13:24:00,35.2,2.7,32.46,NW,325,0.0,4.0,25,0.00,NA,NA,-99.99,wxupload 3.4,2013-01-18 18:24:00,
2013-01-18 13:30:00,35.8,4.9,32.46,North,0,0.0,3.0,27,0.00,NA,NA,-99.99,wxupload 3.4,2013-01-18 18:30:00,
2013-01-18 13:37:00,35.8,2.3,32.46,West,275,0.0,3.0,24,0.00,NA,NA,-99.99,wxupload 3.4,2013-01-18 18:37:00,
2013-01-18 13:42:00,35.8,2.3,32.46,NNE,17,0.0,3.0,24,0.00,NA,NA,-99.99,wxupload 3.4,2013-01-18 18:42:00,
2013-01-18 13:48:00,35.6,2.1,32.46,NNE,20,0.0,0.0,24,0.00,NA,NA,-99.99,wxupload 3.4,2013-01-18 18:48:00,
2013-01-18 13:55:00,35.8,2.3,32.46,NNW,343,3.0,4.0,24,0.00,NA,NA,-99.99,wxupload 3.4,2013-01-18 18:55:00,
2013-01-18 14:00:00,35.8,2.3,32.46,West,270,2.0,3.0,24,0.00,NA,NA,-99.99,wxupload 3.4,2013-01-18 19:00:00,
2013-01-18 14:06:00,35.6,2.1,32.43,NE,36,0.0,0.0,24,0.00,NA,NA,-99.99,wxupload 3.4,2013-01-18 19:06:00,
2013-01-18 14:12:00,35.4,2.9,32.43,NNW,340,0.0,4.0,25,0.00,NA,NA,-99.99,wxupload 3.4,2013-01-18 19:12:00,
2013-01-18 14:18:00,35.2,2.7,32.46,WNW,291,0.0,3.0,25,0.00,NA,NA,-99.99,wxupload 3.4,2013-01-18 19:18:00,
2013-01-18 14:24:00,35.2,2.7,32.46,NE,38,0.0,4.0,25,0.00,NA,NA,-99.99,wxupload 3.4,2013-01-18 19:24:00,
2013-01-18 14:30:00,35.2,2.7,32.46,NNE,22,0.0,4.0,25,0.00,NA,NA,-99.99,wxupload 3.4,2013-01-18 19:30:00,
2013-01-18 14:37:00,35.1,2.5,32.46,NNE,15,2.0,4.0,25,0.00,NA,NA,-99.99,wxupload 3.4,2013-01-18 19:37:00,
2013-01-18 14:42:00,34.9,-0.4,32.46,NNE,18,0.0,0.0,22,0.00,NA,NA,-99.99,wxupload 3.4,2013-01-18 19:42:00,
2013-01-18 14:48:00,34.7,2.2,32.43,NE,47,0.0,0.0,25,0.00,NA,NA,-99.99,wxupload 3.4,2013-01-18 19:48:00,
2013-01-18 14:54:00,34.5,2.1,32.43,NE,34,0.0,3.0,25,0.00,NA,NA,-99.99,wxupload 3.4,2013-01-18 19:54:00,
2013-01-18 15:00:00,34.5,2.1,32.43,NNE,26,0.0,0.0,25,0.00,NA,NA,-99.99,wxupload 3.4,2013-01-18 20:00:00,
2013-01-18 15:06:00,34.3,1.9,32.46,NNE,26,0.0,0.0,25,0.00,NA,NA,-99.99,wxupload 3.4,2013-01-18 20:06:00,
2013-01-18 15:12:00,34.3,1.9,32.46,East,91,0.0,0.0,25,0.00,NA,NA,-99.99,wxupload 3.4,2013-01-18 20:12:00,
2013-01-18 15:19:00,34.3,1.9,32.46,NE,46,0.0,0.0,25,0.00,NA,NA,-99.99,wxupload 3.4,2013-01-18 20:19:00,
2013-01-18 15:24:00,34.3,1.9,32.46,NE,46,0.0,0.0,25,0.00,NA,NA,-99.99,wxupload 3.4,2013-01-18 20:24:00,
2013-01-18 15:30:00,34.2,1.8,32.46,NE,44,0.0,0.0,25,0.00,NA,NA,-99.99,wxupload 3.4,2013-01-18 20:30:00,
2013-01-18 15:36:00,34.2,1.8,32.46,NE,34,0.0,0.0,25,0.00,NA,NA,-99.99,wxupload 3.4,2013-01-18 20:36:00,
2013-01-18 15:42:00,34.3,1.9,32.46,North,357,0.0,0.0,25,0.00,NA,NA,-99.99,wxupload 3.4,2013-01-18 20:42:00,
2013-01-18 15:48:00,34.2,1.8,32.46,WNW,295,0.0,0.0,25,0.00,NA,NA,-99.99,wxupload 3.4,2013-01-18 20:48:00,
2013-01-18 15:54:00,34.2,1.8,32.46,NE,40,0.0,0.0,25,0.00,NA,NA,-99.99,wxupload 3.4,2013-01-18 20:54:00,
2013-01-18 16:00:00,34.3,1.9,32.46,NE,40,0.0,0.0,25,0.00,NA,NA,-99.99,wxupload 3.4,2013-01-18 21:00:00,
2013-01-18 16:06:00,34.3,1.9,32.46,NE,40,0.0,0.0,25,0.00,NA,NA,-99.99,wxupload 3.4,2013-01-18 21:06:00,
2013-01-18 16:13:00,34.3,1.9,32.46,NE,40,0.0,0.0,25,0.00,NA,NA,-99.99,wxupload 3.4,2013-01-18 21:13:00,
2013-01-18 16:18:00,34.0,1.6,32.46,NE,40,0.0,0.0,25,0.00,NA,NA,-99.99,wxupload 3.4,2013-01-18 21:18:00,
2013-01-18 16:24:00,34.3,1.9,32.46,NE,40,0.0,0.0,25,0.00,NA,NA,-99.99,wxupload 3.4,2013-01-18 21:24:00,
2013-01-18 16:30:00,34.0,1.6,32.46,NE,40,0.0,0.0,25,0.00,NA,NA,-99.99,wxupload 3.4,2013-01-18 21:30:00,
2013-01-18 16:36:00,33.8,1.4,32.46,NE,40,0.0,0.0,25,0.00,NA,NA,-99.99,wxupload 3.4,2013-01-18 21:36:00,
2013-01-18 16:43:00,33.4,1.1,32.46,NE,40,0.0,0.0,25,0.00,NA,NA,-99.99,wxupload 3.4,2013-01-18 21:43:00,
2013-01-18 16:48:00,33.1,0.8,32.43,NE,40,0.0,0.0,25,0.00,NA,NA,-99.99,wxupload 3.4,2013-01-18 21:48:00,
2013-01-18 16:55:00,32.7,3.0,32.43,NE,39,0.0,0.0,28,0.00,NA,NA,-99.99,wxupload 3.4,2013-01-18 21:55:00,
2013-01-18 17:00:00,32.5,2.8,32.43,NE,40,0.0,0.0,28,0.00,NA,NA,-99.99,wxupload 3.4,2013-01-18 22:00:00,
2013-01-18 17:06:00,32.2,2.5,32.46,NE,40,0.0,0.0,28,0.00,NA,NA,-99.99,wxupload 3.4,2013-01-18 22:06:00,
2013-01-18 17:12:00,32.0,2.3,32.46,NE,40,0.0,0.0,28,0.00,NA,NA,-99.99,wxupload 3.4,2013-01-18 22:12:00,
2013-01-18 17:18:00,31.8,3.7,32.46,NE,40,0.0,0.0,30,0.00,NA,NA,-99.99,wxupload 3.4,2013-01-18 22:18:00,
2013-01-18 17:24:00,31.3,3.2,32.46,NE,40,0.0,0.0,30,0.00,NA,NA,-99.99,wxupload 3.4,2013-01-18 22:24:00,
2013-01-18 17:30:00,31.1,3.1,32.46,NE,40,0.0,0.0,30,0.00,NA,NA,-99.99,wxupload 3.4,2013-01-18 22:30:00,
2013-01-18 17:37:00,30.6,2.6,32.46,NE,40,0.0,0.0,30,0.00,NA,NA,-99.99,wxupload 3.4,2013-01-18 22:37:00,
2013-01-18 17:42:00,30.2,3.0,32.46,NE,40,0.0,0.0,31,0.00,NA,NA,-99.99,wxupload 3.4,2013-01-18 22:42:00,
2013-01-18 17:48:00,30.2,3.0,32.46,NE,40,0.0,0.0,31,0.00,NA,NA,-99.99,wxupload 3.4,2013-01-18 22:48:00,
2013-01-18 17:54:00,29.7,2.5,32.46,NE,40,0.0,0.0,31,0.00,NA,NA,-99.99,wxupload 3.4,2013-01-18 22:54:00,
2013-01-18 18:00:00,29.5,2.3,32.46,NE,40,0.0,0.0,31,0.00,NA,NA,-99.99,wxupload 3.4,2013-01-18 23:00:00,
2013-01-18 18:07:00,29.1,2.0,32.46,NE,40,0.0,0.0,31,0.00,NA,NA,-99.99,wxupload 3.4,2013-01-18 23:07:00,
2013-01-18 18:12:00,28.8,1.7,32.46,NE,40,0.0,0.0,31,0.00,NA,NA,-99.99,wxupload 3.4,2013-01-18 23:12:00,
2013-01-18 18:19:00,28.4,2.1,32.46,NE,40,0.0,0.0,32,0.00,NA,NA,-99.99,wxupload 3.4,2013-01-18 23:19:00,
2013-01-18 18:24:00,28.2,1.9,32.46,NE,40,0.0,0.0,32,0.00,NA,NA,-99.99,wxupload 3.4,2013-01-18 23:24:00,
2013-01-18 18:30:00,27.9,1.6,32.46,NE,40,0.0,0.0,32,0.00,NA,NA,-99.99,wxupload 3.4,2013-01-18 23:30:00,
2013-01-18 18:36:00,27.7,2.1,32.46,NE,40,0.0,0.0,33,0.00,NA,NA,-99.99,wxupload 3.4,2013-01-18 23:36:00,
2013-01-18 18:42:00,27.7,2.1,32.46,NE,40,0.0,0.0,33,0.00,NA,NA,-99.99,wxupload 3.4,2013-01-18 23:42:00,
2013-01-18 18:48:00,27.7,2.1,32.46,NE,48,0.0,0.0,33,0.00,NA,NA,-99.99,wxupload 3.4,2013-01-18 23:48:00,
2013-01-18 18:54:00,27.5,1.9,32.46,NE,48,0.0,0.0,33,0.00,NA,NA,-99.99,wxupload 3.4,2013-01-18 23:54:00,
2013-01-18 19:01:00,27.3,2.4,32.46,NE,48,0.0,0.0,34,0.00,NA,NA,-99.99,wxupload 3.4,2013-01-19 00:01:00,
2013-01-18 19:06:00,27.1,2.3,32.46,NE,48,0.0,0.0,34,0.00,NA,NA,-99.99,wxupload 3.4,2013-01-19 00:06:00,
2013-01-18 19:12:00,27.0,2.7,32.46,NE,48,0.0,0.0,35,0.00,NA,NA,-99.99,wxupload 3.4,2013-01-19 00:12:00,
2013-01-18 19:18:00,27.0,2.7,32.46,NE,48,0.0,0.0,35,0.00,NA,NA,-99.99,wxupload 3.4,2013-01-19 00:18:00,
2013-01-18 19:24:00,26.8,2.6,32.46,NE,48,0.0,0.0,35,0.00,NA,NA,-99.99,wxupload 3.4,2013-01-19 00:24:00,
2013-01-18 19:31:00,26.6,3.0,32.46,NE,48,0.0,0.0,36,0.00,NA,NA,-99.99,wxupload 3.4,2013-01-19 00:31:00,
2013-01-18 19:36:00,26.2,2.7,32.46,NE,48,0.0,0.0,36,0.00,NA,NA,-99.99,wxupload 3.4,2013-01-19 00:36:00,
2013-01-18 19:43:00,26.1,3.1,32.46,NE,48,0.0,0.0,37,0.00,NA,NA,-99.99,wxupload 3.4,2013-01-19 00:43:00,
2013-01-18 19:48:00,26.1,3.1,32.46,NE,48,0.0,0.0,37,0.00,NA,NA,-99.99,wxupload 3.4,2013-01-19 00:48:00,
2013-01-18 19:54:00,25.9,3.6,32.46,NE,48,0.0,0.0,38,0.00,NA,NA,-99.99,wxupload 3.4,2013-01-19 00:54:00,
2013-01-18 20:00:00,25.7,3.4,32.46,NE,48,0.0,0.0,38,0.00,NA,NA,-99.99,wxupload 3.4,2013-01-19 01:00:00,
2013-01-18 20:06:00,25.7,4.0,32.46,NE,48,0.0,0.0,39,0.00,NA,NA,-99.99,wxupload 3.4,2013-01-19 01:06:00,
2013-01-18 20:13:00,25.3,3.6,32.46,NE,48,0.0,0.0,39,0.00,NA,NA,-99.99,wxupload 3.4,2013-01-19 01:13:00,
2013-01-18 20:18:00,25.3,4.2,32.46,NE,48,0.0,0.0,40,0.00,NA,NA,-99.99,wxupload 3.4,2013-01-19 01:18:00,
2013-01-18 20:25:00,25.2,4.6,32.46,NE,48,0.0,0.0,41,0.00,NA,NA,-99.99,wxupload 3.4,2013-01-19 01:25:00,
2013-01-18 20:30:00,25.2,4.6,32.46,NE,48,0.0,0.0,41,0.00,NA,NA,-99.99,wxupload 3.4,2013-01-19 01:30:00,
2013-01-18 20:36:00,25.0,4.4,32.46,NE,48,0.0,0.0,41,0.00,NA,NA,-99.99,wxupload 3.4,2013-01-19 01:36:00,
2013-01-18 20:42:00,24.6,4.6,32.46,NE,48,0.0,0.0,42,0.00,NA,NA,-99.99,wxupload 3.4,2013-01-19 01:42:00,
2013-01-18 20:48:00,24.6,4.6,32.46,NE,48,0.0,0.0,42,0.00,NA,NA,-99.99,wxupload 3.4,2013-01-19 01:48:00,
2013-01-18 20:55:00,24.6,4.6,32.46,NE,48,0.0,0.0,42,0.00,NA,NA,-99.99,wxupload 3.4,2013-01-19 01:55:00,
2013-01-18 21:00:00,24.4,4.4,32.46,NE,48,0.0,0.0,42,0.00,NA,NA,-99.99,wxupload 3.4,2013-01-19 02:00:00,
2013-01-18 21:06:00,24.4,4.4,32.46,NE,48,0.0,0.0,42,0.00,NA,NA,-99.99,wxupload 3.4,2013-01-19 02:06:00,
2013-01-18 21:12:00,24.3,4.3,32.46,NE,48,0.0,0.0,42,0.00,NA,NA,-99.99,wxupload 3.4,2013-01-19 02:12:00,
2013-01-18 21:18:00,24.3,4.8,32.43,NE,48,0.0,0.0,43,0.00,NA,NA,-99.99,wxupload 3.4,2013-01-19 02:18:00,
2013-01-18 21:24:00,24.4,5.0,32.43,NE,48,0.0,0.0,43,0.00,NA,NA,-99.99,wxupload 3.4,2013-01-19 02:24:00,
2013-01-18 21:30:00,24.3,4.8,32.43,NE,48,0.0,0.0,43,0.00,NA,NA,-99.99,wxupload 3.4,2013-01-19 02:30:00,
2013-01-18 21:37:00,24.3,4.8,32.43,NE,48,0.0,0.0,43,0.00,NA,NA,-99.99,wxupload 3.4,2013-01-19 02:37:00,
2013-01-18 21:42:00,24.3,4.8,32.43,NE,48,0.0,0.0,43,0.00,NA,NA,-99.99,wxupload 3.4,2013-01-19 02:42:00,
2013-01-18 21:48:00,24.4,5.0,32.43,NE,48,0.0,0.0,43,0.00,NA,NA,-99.99,wxupload 3.4,2013-01-19 02:48:00,
2013-01-18 21:54:00,24.3,4.8,32.43,NE,48,0.0,0.0,43,0.00,NA,NA,-99.99,wxupload 3.4,2013-01-19 02:54:00,
2013-01-18 22:00:00,24.3,4.8,32.43,NE,48,0.0,0.0,43,0.00,NA,NA,-99.99,wxupload 3.4,2013-01-19 03:00:00,
2013-01-18 22:07:00,24.3,4.8,32.43,NE,48,0.0,0.0,43,0.00,NA,NA,-99.99,wxupload 3.4,2013-01-19 03:07:00,
2013-01-18 22:12:00,24.4,5.0,32.43,NE,48,0.0,0.0,43,0.00,NA,NA,-99.99,wxupload 3.4,2013-01-19 03:12:00,
2013-01-18 22:19:00,24.8,5.3,32.40,NE,48,0.0,0.0,43,0.00,NA,NA,-99.99,wxupload 3.4,2013-01-19 03:19:00,
2013-01-18 22:24:00,24.8,5.3,32.40,NE,48,0.0,0.0,43,0.00,NA,NA,-99.99,wxupload 3.4,2013-01-19 03:24:00,
2013-01-18 22:30:00,25.2,5.6,32.40,NE,48,0.0,0.0,43,0.00,NA,NA,-99.99,wxupload 3.4,2013-01-19 03:30:00,
2013-01-18 22:36:00,25.3,5.8,32.40,East,88,0.0,0.0,43,0.00,NA,NA,-99.99,wxupload 3.4,2013-01-19 03:36:00,
2013-01-18 22:42:00,25.7,6.1,32.40,East,94,0.0,0.0,43,0.00,NA,NA,-99.99,wxupload 3.4,2013-01-19 03:42:00,
2013-01-18 22:49:00,26.1,6.5,32.40,East,94,0.0,0.0,43,0.00,NA,NA,-99.99,wxupload 3.4,2013-01-19 03:49:00,
2013-01-18 22:54:00,26.1,6.5,32.40,East,94,0.0,0.0,43,0.00,NA,NA,-99.99,wxupload 3.4,2013-01-19 03:54:00,
2013-01-18 23:01:00,26.4,6.8,32.40,East,94,0.0,0.0,43,0.00,NA,NA,-99.99,wxupload 3.4,2013-01-19 04:01:00,
2013-01-18 23:06:00,26.6,7.0,32.40,East,94,0.0,0.0,43,0.00,NA,NA,-99.99,wxupload 3.4,2013-01-19 04:06:00,
2013-01-18 23:12:00,26.8,7.1,32.40,South,174,0.0,0.0,43,0.00,NA,NA,-99.99,wxupload 3.4,2013-01-19 04:12:00,
2013-01-18 23:19:00,27.0,7.3,32.37,South,174,0.0,0.0,43,0.00,NA,NA,-99.99,wxupload 3.4,2013-01-19 04:19:00,
2013-01-18 23:24:00,27.1,7.5,32.37,South,174,0.0,0.0,43,0.00,NA,NA,-99.99,wxupload 3.4,2013-01-19 04:24:00,
2013-01-18 23:31:00,27.3,8.1,32.37,South,187,0.0,0.0,44,0.00,NA,NA,-99.99,wxupload 3.4,2013-01-19 04:31:00,
2013-01-18 23:36:00,27.3,8.1,32.37,WNW,283,0.0,0.0,44,0.00,NA,NA,-99.99,wxupload 3.4,2013-01-19 04:36:00,
2013-01-18 23:43:00,27.3,8.1,32.37,SW,227,0.0,0.0,44,0.00,NA,NA,-99.99,wxupload 3.4,2013-01-19 04:43:00,
2013-01-18 23:48:00,27.3,8.1,32.37,NNE,13,0.0,0.0,44,0.00,NA,NA,-99.99,wxupload 3.4,2013-01-19 04:48:00,
2013-01-18 23:54:00,27.3,8.1,32.37,NNE,13,0.0,0.0,44,0.00,NA,NA,-99.99,wxupload 3.4,2013-01-19 04:54:00,